Simultaneous Nadir Overpasses (SNOs) Predictions

Prediction of SNOs between AQUA and METOP-A Satellite Orbit:

Table of predicted SNOs for the next 14.0 days since TLE Epoch: 7/22/2016
Index Date (AQUA) Time (AQUA) Lat,Lon (AQUA) SZA (AQUA ) Date (METOP-A) Time (METOP-A) Lat,Lon (METOP-A) SZA (METOP-A ) Distance(km) Time Diff (sec)
1 07/23/2016 11:35:39 -73.85,-179.77 126.00 07/23/2016 11:35:13 -73.88,-179.79 125.97 2.79 26
2 07/23/2016 12:25:08 73.94, -12.32 54.10 07/23/2016 12:25:51 73.94, -12.29 54.10 1.08 43
3 07/26/2016 07:09:55 -73.87,-113.37 125.38 07/26/2016 07:09:34 -73.90,-113.33 125.35 3.36 21
4 07/26/2016 07:59:24 73.96, 54.06 54.73 07/26/2016 08:00:12 73.96, 54.15 54.72 2.70 48
5 07/29/2016 01:54:33 73.26, 146.72 54.61 07/29/2016 01:53:27 73.19, 144.13 54.68 83.22 66
6 07/29/2016 02:44:11 -73.89, -46.98 124.71 07/29/2016 02:43:56 -73.86, -47.01 124.73 3.06 15
7 07/29/2016 03:33:39 73.94, 120.55 55.36 07/29/2016 03:34:34 73.92, 120.47 55.34 3.06 55
8 07/31/2016 21:28:52 73.51,-147.36 55.56 07/31/2016 21:27:42 73.45,-148.88 55.59 48.39 70
9 07/31/2016 22:18:25 -73.87, 19.50 124.04 07/31/2016 22:18:16 -73.88, 19.43 124.03 2.43 9
10 07/31/2016 23:07:54 73.97,-173.09 56.08 07/31/2016 23:08:53 73.98,-172.98 56.08 3.56 59
11 08/03/2016 17:03:11 73.70, -81.34 56.50 08/03/2016 17:01:59 73.66, -81.99 56.50 20.81 72
12 08/03/2016 17:52:41 -73.90, 85.86 123.28 08/03/2016 17:52:37 -73.88, 85.86 123.29 1.91 4




NCC Satellite Simultaneous Nadir Overpasses (SNOs) Prediction Service
